DLH5UW EDDM-ENGM

Flight info

Callsign DLH5UW
Flight time N/A
Altitude 38000
Route INPUD2N/26R INPUD Y102 UPALA M726 LASGA DCT EMBOX DCT BUMIL DCT GIMRU DCT SABAK L997 LUNIP
Aircraft A320/M-SDE2E3FGIJ1LORWXYZ/HB1

Departure

Time 2026-05-04 07:47
Airport Munich Airport (EDDM)

Arrival

Time N/A
Airport Oslo-Gardermoen International Airport (ENGM)
Time Latitude Longitude Altitude Speed Heading
2026-05-04 07:15 48.35730 11.79688 1486 ft 0 kts 83°
2026-05-04 07:38 48.35728 11.79665 1473 ft 4 kts 83°
2026-05-04 07:38 48.35725 11.79624 1475 ft 4 kts 83°
2026-05-04 07:38 48.35723 11.79592 1485 ft 4 kts 76°
2026-05-04 07:38 48.35712 11.79558 1485 ft 4 kts 35°
2026-05-04 07:39 48.35690 11.79549 1485 ft 3 kts 353°
2026-05-04 07:39 48.35673 11.79552 1485 ft 0 kts 353°
2026-05-04 07:42 48.35691 11.79549 1475 ft 6 kts 353°
2026-05-04 07:42 48.35751 11.79537 1477 ft 12 kts 353°
2026-05-04 07:43 48.35854 11.79518 1478 ft 18 kts 353°
2026-05-04 07:43 48.35995 11.79494 1473 ft 22 kts 353°
2026-05-04 07:43 48.36142 11.79467 1485 ft 18 kts 353°
2026-05-04 07:43 48.36223 11.79580 1485 ft 21 kts 85°
2026-05-04 07:44 48.36243 11.79822 1485 ft 26 kts 82°
2026-05-04 07:44 48.36264 11.80110 1485 ft 28 kts 84°
2026-05-04 07:44 48.36285 11.80396 1485 ft 28 kts 83°
2026-05-04 07:44 48.36307 11.80692 1475 ft 29 kts 83°
2026-05-04 07:45 48.36330 11.80987 1485 ft 27 kts 83°
2026-05-04 07:45 48.36353 11.81278 1477 ft 29 kts 83°
2026-05-04 07:45 48.36376 11.81577 1482 ft 27 kts 83°
2026-05-04 07:45 48.36395 11.81818 1474 ft 21 kts 84°
2026-05-04 07:46 48.36430 11.81991 1485 ft 17 kts 27°
2026-05-04 07:46 48.36554 11.81985 1473 ft 19 kts 354°
2026-05-04 07:46 48.36666 11.81906 1480 ft 19 kts 285°
2026-05-04 07:46 48.36650 11.81612 1485 ft 55 kts 264°
2026-05-04 07:47 48.36579 11.80666 1482 ft 124 kts 263°
2026-05-04 07:47 48.36461 11.79131 1671 ft 159 kts 264°
2026-05-04 07:47 48.36348 11.77466 2387 ft 161 kts 264°
2026-05-04 07:49 48.38827 11.64159 6180 ft 273 kts 349°
2026-05-04 07:49 48.40733 11.63732 7059 ft 280 kts 353°
2026-05-04 07:49 48.42692 11.63426 7980 ft 286 kts 353°
2026-05-04 07:50 48.44689 11.63088 8893 ft 292 kts 352°
2026-05-04 07:50 48.46719 11.62661 9793 ft 297 kts 349°
2026-05-04 07:50 48.48779 11.62149 10622 ft 302 kts 348°
2026-05-04 07:50 48.50860 11.61578 11475 ft 307 kts 347°
2026-05-04 07:51 48.52970 11.60968 12322 ft 311 kts 347°
2026-05-04 07:51 48.55108 11.60336 13173 ft 315 kts 346°
2026-05-04 07:51 48.57259 11.59607 13983 ft 318 kts 340°
2026-05-04 07:51 48.59399 11.58423 14305 ft 339 kts 336°
2026-05-04 07:52 48.61675 11.57098 14525 ft 360 kts 336°
2026-05-04 07:52 48.64042 11.55711 15074 ft 369 kts 336°
2026-05-04 07:52 48.66448 11.54302 15776 ft 373 kts 336°
2026-05-04 07:52 48.68878 11.52886 16481 ft 376 kts 336°
2026-05-04 07:53 48.71335 11.51460 17189 ft 380 kts 336°
2026-05-04 07:54 48.88294 11.41614 21325 ft 400 kts 336°
2026-05-04 07:55 48.90891 11.40097 21929 ft 402 kts 336°
2026-05-04 07:55 48.93507 11.38567 22510 ft 404 kts 336°
2026-05-04 07:55 48.96140 11.37029 23079 ft 407 kts 336°
2026-05-04 07:55 48.98791 11.35480 23634 ft 410 kts 336°
2026-05-04 07:56 49.01496 11.33895 24092 ft 412 kts 336°
2026-05-04 07:56 49.04180 11.32318 24542 ft 415 kts 336°
2026-05-04 07:56 49.06879 11.30731 24983 ft 417 kts 336°
2026-05-04 07:56 49.09593 11.29134 25419 ft 419 kts 335°
2026-05-04 07:57 49.12326 11.27522 25862 ft 422 kts 335°
2026-05-04 07:57 49.15069 11.25903 26286 ft 425 kts 335°
2026-05-04 07:57 49.17832 11.24271 26705 ft 427 kts 335°
2026-05-04 07:57 49.20676 11.22879 27121 ft 433 kts 343°
2026-05-04 07:58 49.23678 11.22197 27504 ft 441 kts 353°
2026-05-04 07:58 49.26720 11.22162 27893 ft 445 kts 357°
2026-05-04 07:58 49.29824 11.22202 28292 ft 447 kts 357°
2026-05-04 07:58 49.32983 11.22240 28685 ft 450 kts 357°
2026-05-04 07:59 49.36080 11.22273 29057 ft 452 kts 357°
2026-05-04 07:59 49.39235 11.22299 29430 ft 455 kts 356°
2026-05-04 07:59 49.42453 11.22324 29821 ft 457 kts 356°
2026-05-04 07:59 49.45646 11.22346 30128 ft 461 kts 356°
2026-05-04 08:00 49.48863 11.22367 30397 ft 464 kts 356°
2026-05-04 08:00 49.52099 11.22388 30701 ft 466 kts 356°
2026-05-04 08:00 49.55350 11.22409 30997 ft 468 kts 356°
2026-05-04 08:02 49.78030 11.22464 33628 ft 461 kts 356°
2026-05-04 08:02 49.81240 11.22474 33965 ft 461 kts 356°